TimeCDT,TemperatureF,Dew PointF,Humidity,Sea Level PressureIn,VisibilityMPH,Wind Direction,Wind SpeedMPH,Gust SpeedMPH,PrecipitationIn,Events,Conditions,WindDirDegrees,DateUTC
12:55 AM,60.4,60.4,100,29.72,10.0,SE,12.7,17.3,N/A,,Overcast,140,2012-05-02 05:55:00
1:55 AM,59.5,59.5,100,29.67,10.0,SE,10.4,-,N/A,,Overcast,140,2012-05-02 06:55:00
2:12 AM,59.0,59.0,100,29.66,9.0,SE,11.5,-,N/A,Rain,Light Rain,140,2012-05-02 07:12:00
2:21 AM,59.0,59.0,100,29.65,8.0,SE,11.5,-,N/A,Rain,Light Rain,140,2012-05-02 07:21:00
2:22 AM,59.0,59.0,100,29.65,8.0,SE,11.5,-,N/A,,Overcast,140,2012-05-02 07:22:00
2:28 AM,59.0,59.0,100,29.66,8.0,SSE,8.1,-,N/A,,Light Drizzle,150,2012-05-02 07:28:00
2:29 AM,59.0,59.0,100,29.66,8.0,SSE,8.1,-,N/A,,Light Drizzle,150,2012-05-02 07:29:00
2:31 AM,59.0,59.0,100,29.67,8.0,SSE,9.2,-,N/A,Rain,Light Rain,150,2012-05-02 07:31:00
2:35 AM,59.0,59.0,100,29.67,7.0,South,8.1,-,N/A,Rain-Thunderstorm,Light Thunderstorms and Rain,170,2012-05-02 07:35:00
2:52 AM,59.0,59.0,100,29.67,2.5,SE,12.7,-,N/A,Rain-Thunderstorm,Heavy Thunderstorms and Rain,140,2012-05-02 07:52:00
2:54 AM,59.0,59.0,100,29.67,2.5,SSE,11.5,-,N/A,Rain-Thunderstorm,Heavy Thunderstorms and Rain,150,2012-05-02 07:54:00
2:55 AM,58.6,58.6,100,29.67,2.0,SSE,11.5,-,0.00,Rain-Thunderstorm,Thunderstorms and Rain,150,2012-05-02 07:55:00
2:56 AM,59.0,59.0,100,29.67,2.0,SSE,10.4,-,N/A,Rain-Thunderstorm,Thunderstorms and Rain,150,2012-05-02 07:56:00
3:01 AM,59.0,59.0,100,29.65,2.5,ESE,17.3,-,N/A,Rain-Thunderstorm,Thunderstorms and Rain,120,2012-05-02 08:01:00
3:04 AM,59.0,59.0,100,29.65,3.0,SE,11.5,-,N/A,Rain-Thunderstorm,Light Thunderstorms and Rain,130,2012-05-02 08:04:00
3:05 AM,59.0,59.0,100,29.66,3.0,SE,10.4,-,N/A,Rain-Thunderstorm,Light Thunderstorms and Rain,140,2012-05-02 08:05:00
3:12 AM,59.0,59.0,100,29.65,5.0,SSE,8.1,-,N/A,Rain-Thunderstorm,Light Thunderstorms and Rain,150,2012-05-02 08:12:00
3:13 AM,59.0,59.0,100,29.66,6.0,SSE,6.9,-,N/A,Rain,Light Rain,160,2012-05-02 08:13:00
3:21 AM,59.0,59.0,100,29.72,4.0,West,23.0,31.1,N/A,Rain,Light Rain,280,2012-05-02 08:21:00
3:23 AM,59.0,59.0,100,29.72,2.0,West,21.9,31.1,N/A,Rain,Rain,270,2012-05-02 08:23:00
3:25 AM,59.0,59.0,100,29.72,1.8,West,19.6,31.1,N/A,Rain,Heavy Rain,280,2012-05-02 08:25:00
3:26 AM,59.0,59.0,100,29.72,1.5,WNW,17.3,31.1,N/A,Rain,Heavy Rain,300,2012-05-02 08:26:00
3:28 AM,59.0,59.0,100,29.71,1.2,WNW,9.2,31.1,N/A,Rain,Heavy Rain,300,2012-05-02 08:28:00
3:32 AM,59.0,59.0,100,29.72,1.5,West,9.2,29.9,N/A,Rain,Heavy Rain,270,2012-05-02 08:32:00
3:34 AM,59.0,59.0,100,29.72,1.8,West,8.1,-,N/A,Rain,Heavy Rain,270,2012-05-02 08:34:00
3:36 AM,59.0,59.0,100,29.72,2.0,West,5.8,-,N/A,Rain-Thunderstorm,Thunderstorms and Rain,280,2012-05-02 08:36:00
3:38 AM,59.0,59.0,100,29.71,2.5,West,4.6,-,N/A,Rain-Thunderstorm,Thunderstorms and Rain,280,2012-05-02 08:38:00
3:41 AM,59.0,59.0,100,29.72,3.0,West,4.6,-,N/A,Rain-Thunderstorm,Light Thunderstorms and Rain,270,2012-05-02 08:41:00
3:43 AM,59.0,59.0,100,29.71,2.5,West,4.6,-,N/A,Rain-Thunderstorm,Light Thunderstorms and Rain,270,2012-05-02 08:43:00
3:53 AM,59.0,59.0,100,29.71,3.0,Calm,Calm,-,N/A,Rain-Thunderstorm,Light Thunderstorms and Rain,0,2012-05-02 08:53:00
3:54 AM,59.0,59.0,100,29.71,2.5,Calm,Calm,-,N/A,Rain-Thunderstorm,Light Thunderstorms and Rain,0,2012-05-02 08:54:00
3:55 AM,58.3,58.3,100,29.71,2.5,Calm,Calm,-,0.00,Rain-Thunderstorm,Light Thunderstorms and Rain,0,2012-05-02 08:55:00
3:58 AM,59.0,59.0,100,29.71,3.0,Calm,Calm,-,N/A,Rain-Thunderstorm,Thunderstorms and Rain,0,2012-05-02 08:58:00
4:03 AM,59.0,59.0,100,29.70,2.5,ESE,5.8,-,N/A,Rain-Thunderstorm,Light Thunderstorms and Rain,110,2012-05-02 09:03:00
4:04 AM,59.0,59.0,100,29.70,3.0,ESE,5.8,-,N/A,Rain-Thunderstorm,Light Thunderstorms and Rain,110,2012-05-02 09:04:00
4:18 AM,57.2,57.2,100,29.67,4.0,East,4.6,-,N/A,Rain,Light Rain,90,2012-05-02 09:18:00
4:47 AM,57.2,57.2,100,29.62,9.0,SE,10.4,-,N/A,,Light Drizzle,130,2012-05-02 09:47:00
4:55 AM,57.9,57.9,100,29.62,9.0,SE,9.2,-,0.00,Rain,Light Rain,140,2012-05-02 09:55:00
4:59 AM,57.2,57.2,100,29.62,8.0,SE,8.1,-,N/A,Rain,Light Rain,140,2012-05-02 09:59:00
5:09 AM,57.2,57.2,100,29.64,7.0,SSE,11.5,-,N/A,Rain,Light Rain,160,2012-05-02 10:09:00
5:21 AM,59.0,59.0,100,29.64,7.0,SSE,13.8,-,N/A,Rain,Light Rain,160,2012-05-02 10:21:00
5:23 AM,59.0,59.0,100,29.64,7.0,South,12.7,-,N/A,Rain,Light Rain,170,2012-05-02 10:23:00
5:40 AM,59.0,59.0,100,29.66,10.0,South,12.7,-,N/A,Rain,Light Rain,170,2012-05-02 10:40:00
5:54 AM,59.0,59.0,100,29.65,10.0,SSE,8.1,17.3,N/A,Rain,Light Rain,150,2012-05-02 10:54:00
5:55 AM,58.5,58.5,100,29.65,10.0,SSE,6.9,17.3,0.00,Rain,Light Rain,150,2012-05-02 10:55:00
6:18 AM,59.0,59.0,100,29.58,10.0,SE,19.6,-,N/A,,Partly Cloudy,140,2012-05-02 11:18:00
6:49 AM,59.0,59.0,100,29.67,10.0,WNW,20.7,26.5,N/A,,Partly Cloudy,290,2012-05-02 11:49:00
6:55 AM,59.0,59.0,100,29.67,10.0,WNW,12.7,28.8,N/A,,Overcast,300,2012-05-02 11:55:00
7:55 AM,60.8,60.8,100,29.72,10.0,West,4.6,-,N/A,,Mostly Cloudy,260,2012-05-02 12:55:00
8:55 AM,64.4,64.4,100,29.73,10.0,WSW,4.6,-,N/A,,Mostly Cloudy,250,2012-05-02 13:55:00
9:55 AM,68.0,66.2,94,29.77,10.0,WSW,6.9,-,N/A,,Mostly Cloudy,250,2012-05-02 14:55:00
10:55 AM,71.6,62.6,73,29.76,10.0,SW,9.2,-,N/A,,Mostly Cloudy,230,2012-05-02 15:55:00
11:55 AM,73.4,60.8,65,29.76,10.0,WSW,12.7,19.6,N/A,,Scattered Clouds,240,2012-05-02 16:55:00
12:55 PM,77.0,60.8,57,29.78,10.0,WSW,8.1,-,N/A,,Scattered Clouds,250,2012-05-02 17:55:00
1:55 PM,78.8,62.6,57,29.78,10.0,WSW,10.4,-,N/A,,Scattered Clouds,240,2012-05-02 18:55:00
2:55 PM,80.6,62.6,54,29.78,10.0,West,11.5,-,N/A,,Scattered Clouds,260,2012-05-02 19:55:00
3:55 PM,80.6,59.0,48,29.78,10.0,Variable,6.9,-,N/A,,Scattered Clouds,0,2012-05-02 20:55:00
4:55 PM,80.6,62.6,54,29.79,10.0,West,10.4,-,N/A,,Mostly Cloudy,260,2012-05-02 21:55:00
5:55 PM,80.6,60.8,51,29.79,10.0,West,6.9,-,N/A,,Mostly Cloudy,270,2012-05-02 22:55:00
6:55 PM,78.8,62.6,57,29.80,10.0,SW,4.6,-,N/A,,Mostly Cloudy,220,2012-05-02 23:55:00
7:55 PM,75.2,62.6,65,29.80,10.0,SSE,3.5,-,N/A,,Mostly Cloudy,160,2012-05-03 00:55:00
8:36 PM,73.4,64.4,73,29.82,10.0,South,4.6,-,N/A,Rain,Light Rain,180,2012-05-03 01:36:00
8:55 PM,73.4,64.4,73,29.81,10.0,South,10.4,-,N/A,Rain,Light Rain,190,2012-05-03 01:55:00
8:59 PM,73.4,64.4,73,29.82,10.0,South,8.1,-,N/A,,Mostly Cloudy,190,2012-05-03 01:59:00
9:23 PM,71.6,66.2,83,29.81,10.0,SSE,5.8,-,N/A,Thunderstorm,Thunderstorm,160,2012-05-03 02:23:00
9:39 PM,71.6,66.2,83,29.82,6.0,South,3.5,-,N/A,Rain-Thunderstorm,Light Thunderstorms and Rain,180,2012-05-03 02:39:00
9:55 PM,69.8,69.8,100,29.81,5.0,Calm,Calm,-,N/A,Rain-Thunderstorm,Light Thunderstorms and Rain,0,2012-05-03 02:55:00
10:08 PM,68.0,68.0,100,29.82,10.0,Calm,Calm,-,N/A,Thunderstorm,Thunderstorm,0,2012-05-03 03:08:00
10:12 PM,68.0,68.0,100,29.82,10.0,SSE,3.5,-,N/A,Rain-Thunderstorm,Light Thunderstorms and Rain,150,2012-05-03 03:12:00
10:55 PM,68.0,68.0,100,29.83,4.0,SW,6.9,-,N/A,Rain-Thunderstorm,Light Thunderstorms and Rain,220,2012-05-03 03:55:00
11:16 PM,68.0,68.0,100,29.82,2.0,SSE,13.8,-,N/A,Rain-Thunderstorm,Heavy Thunderstorms and Rain,160,2012-05-03 04:16:00
11:24 PM,66.2,66.2,100,29.81,4.0,South,12.7,26.5,N/A,Rain-Thunderstorm,Light Thunderstorms and Rain,180,2012-05-03 04:24:00
11:50 PM,66.2,66.2,100,29.81,10.0,SSE,4.6,-,N/A,Thunderstorm,Overcast,150,2012-05-03 04:50:00
11:55 PM,66.2,66.2,100,29.80,10.0,SE,4.6,-,N/A,Thunderstorm,Overcast,140,2012-05-03 04:55:00